Starlink 32122

operational
NORAD ID: 60285 Int'l Des: 2024-132 Owner: SPXS Country: US Constellation: starlink
LEOCIRCULAR

About Starlink 32122

Description loading...

Live Position

Loading 3D Globe...

Upcoming Passes

Altitude History

Altitude vs Time

uPlot chart will show altitude changes over time

Two-Line Element Set

1 60285U 24132H 25260.89046005 -.00000788 00000-0 -14478-4 0 9993
2 60285 53.1596 135.0926 0001202 90.4618 269.6521 15.30198794 65101
Epoch: Sep 17, 2025 • Age: 13 hours

Current Status

Altitude 479.4 km
Velocity 7.63 km/s
Sub-Earth Point 46.02°N, 108.17°E
Launch Date Jul 28, 2024
Age 1.1 years
Type internet

Technical Details

Classification Payload
Mass 730.00 kg
Dry Mass 700.00 kg
Total Mass 730.00 kg
Length 0.30 m
Diameter 4.10 m
Span 29.00 m
Shape Box + pan
Manufacturer SPXS
Bus Type Starlink V2M
Phase Status In Orbit
Owner/State SPXS/US

Large Constellations

Loading constellations...